Wind_Speed
9 9 8 7 8 7 6 7 9 11 13 14 15 15 14 12 11 11 11 11 11 11 10 10 11 12 13 14 15 15 14 12 15 21 22 22 20 19 22 22 20 13 8 7 7 7 5 3 2 3 1 1 1 2 1 3 3 1 1 2 3 3 3 3 4 4 5 6 4 3 2 5 3 2 4 3 5 7 7 7 6 5 7 13 17 19 21 19
8 9 7 7 8 6 6 9 10 12 12 13 15 16 16 14 11 9 9 8 7 6 5 4 5 7 9 11 13 13 13 12 18 27 24 18 18 19 20 21 21 16 9 6 5 6 6 4 1 1 1 0 1 2 1 4 5 2 1 3 3 2 2 3 6 6 4 7 7 4 3 4 4 1 5 3 4 7 6 7 8 10 13 16 18 19 19 19
8 8 7 7 8 7 8 11 11 10 10 12 14 14 15 14 12 11 9 9 8 8 7 5 4 4 3 5 7 10 12 13 18 23 19 16 19 19 19 19 20 18 12 7 5 6 6 6 4 1 0 1 3 3 3 4 4 2 1 4 2 3 2 3 6 6 5 8 8 6 5 4 3 1 5 3 3 6 3 6 7 10 16 16 17 17 18 18
8 6 7 8 8 9 10 11 9 7 9 11 12 12 12 12 12 12 12 12 12 13 13 12 9 6 3 1 5 4 6 12 18 18 14 15 18 18 19 18 18 18 15 10 6 5 5 6 5 3 2 3 3 3 4 5 4 0 2 3 3 3 2 5 8 6 6 7 7 7 6 4 2 1 3 2 3 4 2 4 5 11 19 18 17 18 17 17
6 5 7 8 8 9 9 8 7 7 10 10 11 11 10 9 9 10 11 11 12 10 11 12 12 12 11 7 4 7 3 4 12 14 11 14 16 17 19 19 18 18 17 12 8 5 4 4 3 3 3 3 3 2 3 5 3 1 1 3 3 2 2 7 9 7 7 6 5 5 6 5 3 1 1 3 5 2 3 1 3 13 20 19 19 19 18 17
6 6 7 7 7 8 8 7 7 9 11 10 10 9 10 10 8 9 9 9 8 6 7 7 8 12 16 18 10 8 6 3 9 12 11 13 14 17 19 20 19 17 16 13 10 7 5 4 3 3 2 3 3 3 3 3 2 1 2 3 1 1 3 8 10 9 8 5 4 5 5 5 2 1 2 3 5 7 6 2 11 19 20 20 21 19 19 18
5 5 5 6 7 7 7 8 10 11 12 11 9 9 11 11 11 10 9 8 6 5 5 5 6 8 13 19 16 18 18 12 11 12 12 13 14 16 18 19 18 16 14 13 13 9 7 7 5 5 3 2 2 2 3 2 1 1 1 2 2 2 3 8 11 11 8 4 4 5 5 4 4 3 3 8 9 8 6 12 18 22 22 22 22 20 19 19
3 5 5 7 8 8 8 10 12 13 12 11 9 10 12 14 16 14 12 11 8 8 7 7 7 6 9 9 12 22 23 15 14 13 12 13 14 15 17 17 17 16 15 15 14 9 8 9 7 4 2 3 2 1 3 1 2 2 2 2 2 2 2 7 10 13 9 6 6 4 4 4 3 2 6 10 10 10 13 18 21 23 24 22 21 20 19 18
4 6 6 8 9 9 10 11 12 12 12 11 10 11 14 16 17 16 15 13 11 11 11 12 10 8 7 4 7 17 16 14 15 15 12 12 13 14 15 15 16 16 15 15 14 12 10 9 8 4 4 4 3 2 3 2 2 3 4 3 2 2 3 7 9 13 10 6 9 6 6 5 1 3 8 9 9 13 16 20 21 23 22 20 20 19 18 19
6 7 9 10 10 10 10 11 11 11 11 11 11 12 13 13 13 14 14 13 13 11 12 16 14 10 8 8 13 13 10 12 14 14 12 12 12 11 12 14 16 15 15 15 15 15 13 10 9 5 6 6 3 4 5 4 3 3 5 1 2 3 2 7 9 14 12 5 10 9 7 5 2 2 4 7 9 13 18 20 19 20 21 19 19 18 18 18
8 9 11 10 10 10 10 10 9 10 10 10 11 10 9 10 12 12 12 13 14 14 13 13 12 11 11 18 23 14 9 11 12 14 13 12 10 10 12 14 15 16 16 17 16 16 14 12 11 6 4 4 3 4 5 5 2 2 7 1 1 6 1 6 11 14 13 4 11 12 4 3 4 4 3 7 9 12 18 19 18 19 19 18 18 17 17 17
10 11 11 10 10 9 9 9 8 9 9 9 10 8 8 10 11 9 9 9 11 15 15 12 9 6 11 24 26 14 11 10 7 12 14 11 12 12 14 14 14 15 16 16 14 13 13 13 13 12 8 4 1 2 3 7 2 1 8 1 1 9 0 5 9 14 15 5 13 15 4 2 5 6 4 10 9 12 17 18 17 18 17 17 17 17 17 16
12 11 11 10 10 9 9 8 8 9 9 10 10 10 10 9 7 6 7 7 8 10 10 14 14 9 12 21 21 14 12 11 5 6 10 11 13 14 15 15 13 14 16 15 12 11 13 13 13 17 18 9 1 2 2 5 3 1 5 1 3 8 1 5 9 13 14 7 14 15 6 2 6 7 7 10 10 14 16 16 16 16 16 16 16 17 17 17
12 11 11 10 10 9 8 8 9 10 11 11 10 10 9 8 9 8 8 8 7 6 4 8 12 15 21 19 17 18 14 12 6 3 9 11 12 15 15 14 12 12 13 13 11 10 10 10 13 18 21 17 4 2 1 2 3 3 3 1 4 6 3 8 9 9 9 7 13 12 8 5 7 7 6 10 10 14 14 14 15 14 15 14 15 16 16 16
12 11 10 10 10 9 9 10 11 10 10 10 9 9 8 9 11 9 10 10 8 7 7 9 8 12 20 16 14 18 16 16 15 12 14 12 12 15 15 14 11 8 10 14 13 10 8 8 15 18 15 19 12 2 1 1 2 4 3 4 6 6 7 8 4 4 7 7 10 7 8 7 6 6 3 10 10 12 13 14 14 13 14 13 13 13 13 14
11 11 10 10 11 12 12 12 11 11 10 9 8 8 6 7 9 9 12 12 11 10 9 12 12 12 13 9 9 17 23 25 23 18 15 11 12 17 16 14 10 5 7 15 15 10 6 7 15 18 14 15 11 4 2 0 2 4 5 7 8 8 10 9 4 6 4 6 8 3 7 9 4 6 2 9 11 11 13 14 13 13 13 12 11 11 11 11
11 11 11 11 12 12 11 10 10 9 9 8 8 6 5 5 5 6 6 7 10 12 12 12 10 12 13 10 10 16 23 27 24 18 14 12 11 14 16 14 11 5 4 11 16 14 11 10 9 10 12 10 6 6 3 4 7 6 7 6 7 8 9 11 6 4 3 6 9 6 7 7 5 7 5 7 12 12 14 14 13 12 11 10 10 9 9 10
12 11 10 11 10 9 8 8 10 12 16 18 18 17 15 11 6 5 3 2 6 7 9 12 6 5 10 15 14 12 14 22 26 21 17 14 8 11 17 16 12 9 5 6 16 20 13 9 5 3 7 8 7 9 7 6 8 8 10 7 7 9 7 11 11 8 8 6 8 10 9 7 6 7 6 6 12 12 14 14 13 11 10 9 8 8 8 9
11 10 11 12 11 11 12 15 18 20 22 20 17 17 18 20 19 17 17 16 16 8 4 13 12 4 4 14 17 11 8 18 27 24 19 17 9 9 17 16 16 17 10 4 13 19 9 3 5 5 7 8 8 9 7 4 6 9 9 6 7 10 7 11 13 7 7 7 9 10 11 8 5 5 6 7 11 12 13 13 11 10 9 7 7 8 9 9
11 12 14 15 16 18 20 21 20 18 13 8 5 5 7 12 15 19 28 31 29 20 12 15 15 9 5 11 18 14 7 13 28 29 23 20 11 9 18 17 17 23 14 2 5 10 6 4 7 6 7 7 6 5 3 2 5 7 8 6 7 9 9 13 12 4 5 7 10 10 10 6 4 5 5 7 10 12 12 12 10 9 8 7 8 9 10 9
14 16 17 18 19 20 17 13 10 7 5 4 5 7 6 6 6 9 20 26 24 23 21 20 18 14 10 12 19 18 10 12 26 32 26 22 14 9 17 18 12 13 10 3 1 3 5 7 6 6 5 4 2 1 1 3 5 5 6 8 8 7 11 12 8 3 5 7 9 9 10 3 5 5 5 8 8 10 10 11 11 8 7 6 8 10 11 12
16 18 18 17 16 14 8 5 5 5 7 9 11 13 13 12 12 12 15 16 15 17 19 21 22 20 16 14 17 20 21 19 24 34 31 24 20 13 13 14 7 5 6 4 0 1 6 8 6 5 2 1 1 0 3 5 6 6 6 7 7 9 13 8 3 5 6 6 7 7 8 2 7 6 6 8 7 8 8 10 10 7 6 8 10 11 12 14
15 14 13 13 11 9 6 6 7 8 9 9 9 11 12 12 12 13 15 13 10 12 14 18 23 24 21 17 14 18 26 21 18 31 35 25 21 16 11 9 5 4 5 6 5 5 6 7 5 3 1 2 1 2 6 7 6 6 7 7 8 11 13 8 7 14 11 7 7 7 6 1 7 7 7 8 9 11 11 11 10 7 8 10 11 11 12 15
12 11 10 9 9 7 6 6 6 6 5 3 3 5 7 8 8 7 10 9 6 7 11 15 20 23 23 19 13 12 21 22 18 27 33 25 17 11 8 6 3 4 6 4 6 9 6 4 4 1 2 3 3 5 8 9 7 6 6 8 11 13 15 13 12 16 12 4 2 8 8 0 5 7 7 9 11 13 12 11 9 8 10 11 11 12 13 14
11 10 9 8 7 6 6 6 5 4 2 1 1 2 3 5 4 3 4 4 4 5 9 10 13 18 21 21 12 5 12 20 23 27 28 23 15 7 5 6 5 6 6 2 2 7 6 3 3 2 1 5 7 8 9 8 8 4 6 7 12 16 17 16 14 13 9 2 3 6 9 5 1 6 9 8 9 10 8 7 7 8 11 13 13 14 15 16
10 9 8 7 6 6 5 4 4 4 3 1 1 2 2 2 2 2 2 2 2 5 8 7 9 13 17 21 13 2 5 11 17 25 28 20 15 9 4 4 5 4 4 1 2 3 4 2 1 1 3 7 9 8 7 7 8 5 5 7 12 16 16 14 14 8 6 7 4 4 7 9 8 2 9 9 9 8 5 5 7 10 11 13 14 15 17 19
7 6 5 4 3 3 2 1 2 3 2 1 1 3 2 1 1 1 1 1 3 4 7 7 7 10 13 17 16 5 1 8 9 20 29 20 13 12 7 3 2 3 3 2 1 2 3 4 3 3 5 7 8 8 7 7 6 6 10 13 13 16 16 12 10 5 5 8 3 4 6 10 11 6 9 9 8 6 3 5 8 11 13 13 14 16 19 20
3 3 2 2 1 1 1 2 2 2 2 1 1 3 3 2 1 0 1 2 3 3 5 5 5 9 9 13 21 15 5 9 6 12 26 22 13 10 10 6 1 3 5 2 3 3 2 5 6 6 6 7 7 8 8 6 4 7 12 14 13 14 13 8 5 5 5 5 4 6 8 9 10 6 8 7 6 4 4 7 8 12 14 13 15 18 20 23
2 2 3 3 3 4 4 4 3 2 2 1 1 3 2 1 1 0 2 1 2 2 3 4 4 9 9 8 17 17 10 11 7 9 21 25 17 8 6 7 2 2 4 6 5 3 1 2 3 4 5 6 7 9 8 4 5 9 12 12 11 9 7 4 3 5 5 4 8 13 12 10 10 4 5 3 5 4 6 7 9 12 12 12 16 21 23 28
3 4 5 5 6 6 6 5 4 3 1 1 3 4 3 3 2 1 2 0 1 2 4 5 4 9 12 6 8 12 9 10 10 10 15 22 26 18 7 6 6 0 3 6 5 4 1 1 0 1 4 5 7 8 5 2 6 12 12 10 8 4 3 2 1 3 5 5 9 16 16 13 8 3 4 3 4 2 5 7 9 12 13 14 19 24 28 30
5 6 6 6 7 6 6 6 4 3 2 2 5 5 3 2 1 2 2 0 1 3 3 4 3 6 9 4 4 9 5 6 11 10 10 13 21 24 11 5 6 1 1 4 4 5 2 2 1 1 2 5 7 5 1 2 6 10 9 12 9 4 4 3 1 1 4 7 11 17 17 12 8 4 4 4 2 1 4 6 8 12 15 18 22 28 30 28
4 5 5 5 5 5 5 5 4 4 4 4 6 4 2 0 1 2 1 2 1 2 2 2 3 4 4 1 3 6 3 4 9 8 7 5 8 13 11 7 5 3 3 5 5 4 3 4 2 2 1 6 7 4 1 2 4 9 11 12 10 8 7 6 7 6 5 8 13 17 14 8 8 3 6 5 1 1 3 5 6 11 18 22 26 30 29 28
2 2 1 1 2 2 3 4 5 6 6 6 6 2 2 2 1 1 1 2 1 3 2 1 2 2 2 1 3 5 2 2 6 5 3 2 3 6 9 10 9 5 3 4 5 6 2 4 3 1 1 7 9 7 5 4 7 10 10 10 8 7 7 7 9 10 8 10 13 13 7 7 10 2 8 4 0 1 4 5 6 12 19 24 28 30 29 29
4 3 2 1 2 3 4 5 5 6 7 6 4 1 3 3 1 1 1 1 1 1 1 1 2 1 1 2 2 4 0 1 4 5 3 2 3 5 6 10 12 6 2 1 2 4 4 1 4 4 2 7 10 6 4 4 4 5 6 6 6 4 4 6 8 9 10 13 12 8 4 9 13 1 8 4 2 4 5 5 9 15 21 26 29 30 30 28
7 6 4 3 4 5 6 6 6 6 7 5 2 2 2 1 1 1 1 0 0 1 1 1 1 1 2 2 1 1 1 1 1 3 5 4 3 4 4 6 10 7 2 2 1 2 3 2 3 4 1 6 8 2 2 4 1 2 3 4 7 6 4 6 7 7 9 11 9 5 4 9 8 4 7 4 4 5 6 9 15 21 26 30 31 30 29 28
8 7 4 3 4 5 6 6 5 5 6 4 3 3 1 1 1 1 1 0 1 0 0 0 1 2 1 1 1 1 1 1 0 1 3 4 2 2 2 2 6 6 3 3 1 2 3 2 3 4 4 6 8 2 1 4 3 4 4 5 8 6 3 5 7 7 7 9 8 6 9 11 6 2 4 3 6 11 13 15 20 26 32 33 31 30 28 28
6 6 4 3 3 4 5 5 5 5 5 3 4 3 0 0 0 1 1 1 1 1 0 1 1 3 1 1 2 3 3 1 1 2 1 1 1 2 2 1 2 3 3 2 0 1 3 5 3 2 2 4 6 6 7 7 6 5 5 7 7 4 3 2 6 7 9 9 6 9 14 13 9 5 3 6 12 14 14 17 24 31 34 33 31 29 28 29
5 6 5 4 3 4 5 4 4 5 4 4 4 3 1 0 1 1 2 2 1 1 1 1 1 1 1 1 1 4 5 3 3 3 1 1 1 2 0 1 1 3 3 3 1 2 2 5 1 2 1 2 3 4 4 8 8 6 4 6 5 2 3 5 4 6 11 11 9 12 14 10 9 8 8 11 13 14 16 19 25 31 33 32 31 30 30 28
3 4 6 6 4 4 4 4 4 4 4 4 2 2 1 1 2 2 2 1 0 0 1 1 0 0 1 0 1 2 3 3 3 2 1 2 1 2 0 1 1 3 3 2 1 1 2 3 1 3 2 3 1 1 2 3 5 5 3 3 3 2 4 3 1 3 8 11 11 14 14 8 6 7 8 11 12 14 18 19 23 29 31 31 30 29 30 26
1 2 5 4 4 5 4 5 4 4 4 3 2 2 2 2 3 2 2 2 1 0 1 2 1 1 1 0 1 1 1 2 2 1 1 2 1 2 2 1 1 2 2 0 0 0 1 2 3 2 2 3 0 1 2 1 2 2 3 3 3 1 2 2 1 0 3 8 10 13 12 8 7 5 5 10 12 14 20 21 24 29 31 30 28 28 27 24
2 2 3 2 4 4 5 6 8 6 4 2 2 2 2 3 4 3 3 3 3 2 2 2 1 1 1 0 1 1 0 1 1 1 1 1 1 1 2 2 1 0 0 1 1 1 1 2 4 6 5 3 2 2 0 4 4 4 4 2 3 4 3 4 3 1 0 4 6 8 11 10 7 4 5 9 11 16 24 27 27 30 31 29 27 27 24 22
2 1 2 2 3 4 4 6 7 5 2 3 3 4 4 4 4 3 3 3 2 2 3 3 2 2 1 0 1 2 1 1 1 0 0 0 2 2 1 2 1 2 2 0 1 1 1 1 3 6 6 4 4 4 3 8 10 5 4 3 1 2 4 4 6 5 4 5 6 6 10 8 3 6 9 11 13 19 27 29 28 29 29 28 27 26 22 21
4 4 2 2 5 5 5 5 4 3 3 3 5 6 6 4 3 3 2 1 1 1 2 2 1 1 1 1 1 2 2 1 1 0 1 1 1 1 1 1 1 2 3 0 2 2 1 1 3 6 5 1 5 5 5 8 7 4 5 4 2 3 2 2 4 5 5 6 6 7 9 6 4 13 19 18 18 23 27 28 29 29 28 27 26 23 21 23
9 8 6 3 4 4 3 3 2 2 2 3 4 6 5 5 3 2 1 1 1 2 1 2 1 1 2 1 1 1 1 1 1 0 0 1 1 1 1 0 2 1 1 1 1 1 1 0 3 6 5 1 1 1 1 3 3 2 4 4 3 3 1 2 3 1 3 6 9 10 9 8 8 15 21 21 22 26 27 28 29 28 28 27 25 22 22 26
7 7 9 7 2 4 3 6 8 5 2 4 5 3 3 5 4 2 2 2 2 2 2 2 3 3 3 1 1 2 1 1 1 0 1 1 1 1 1 2 0 1 1 2 0 1 1 2 2 4 6 5 5 5 5 6 6 3 2 4 3 3 2 1 3 3 5 9 11 9 10 13 16 18 19 20 21 23 27 29 30 28 27 26 24 22 23 27
3 2 4 8 7 7 10 11 13 9 4 4 4 2 1 2 2 2 3 2 3 4 3 3 3 3 2 1 2 2 1 1 1 1 1 2 1 1 1 2 1 1 1 2 2 1 1 1 1 1 2 5 7 10 11 11 10 9 6 1 3 3 2 1 3 5 8 12 10 8 11 18 22 21 20 20 19 20 24 29 30 29 28 25 23 21 23 28
2 1 1 3 7 11 12 11 11 10 5 4 3 2 3 3 1 2 1 0 3 4 3 3 2 2 1 2 3 2 1 1 1 1 1 1 0 0 1 1 1 1 1 1 3 1 1 2 1 3 7 9 11 15 15 13 11 12 10 3 4 5 4 3 3 7 9 9 8 10 15 19 21 21 21 20 19 19 22 27 28 28 27 24 21 21 24 27
2 3 3 4 3 4 5 5 10 12 7 3 3 2 3 3 2 2 2 1 3 3 2 1 1 1 1 2 2 2 2 0 1 1 1 1 1 1 1 0 1 2 1 1 2 2 1 3 1 1 7 11 13 16 16 13 10 10 9 7 6 6 7 6 7 10 8 7 11 18 21 20 20 20 19 18 20 21 23 25 27 26 25 21 19 22 26 28
6 7 6 6 5 5 6 7 12 14 8 4 3 2 3 5 4 2 1 2 2 2 2 2 2 2 1 2 1 2 2 2 2 2 2 2 2 1 1 1 1 2 2 1 2 2 1 2 2 1 8 12 13 14 12 9 9 8 9 9 8 7 8 9 10 11 11 13 17 21 22 19 16 15 17 20 24 23 22 25 26 26 23 20 19 23 27 28
6 6 6 10 11 10 9 8 9 8 4 2 2 2 3 4 4 3 2 2 2 2 3 2 2 2 1 2 2 1 2 2 1 2 4 4 1 2 2 1 2 2 1 1 1 1 1 1 2 1 5 9 8 7 6 7 8 9 9 8 8 8 9 10 11 11 11 14 16 18 18 15 10 13 19 23 24 23 23 26 27 25 23 20 20 25 28 27
5 5 8 12 9 5 4 5 4 2 1 1 1 3 3 3 5 6 3 1 1 3 2 3 5 4 1 1 4 3 2 2 1 1 5 5 2 3 2 1 3 3 1 1 1 0 1 1 1 1 5 5 3 3 6 4 4 6 8 9 10 9 8 8 9 9 10 12 14 14 13 10 11 17 22 22 23 24 24 26 26 24 22 20 22 27 28 27
7 9 11 9 5 2 2 3 1 1 2 2 2 4 3 4 9 9 3 0 3 4 3 5 6 4 1 2 4 3 2 2 2 1 5 5 3 2 2 3 4 3 2 2 1 0 1 2 1 0 4 4 0 6 8 2 1 3 4 7 11 10 9 9 10 10 11 10 9 9 8 10 15 19 19 20 22 23 23 25 24 21 18 18 22 26 27 26
Wind_Direction
97 86 79 83 87 100 105 95 81 68 68 73 73 74 80 91 108 119 118 113 106 96 90 91 94 92 88 85 82 76 62 62 79 78 67 51 38 30 26 24 25 26 34 39 37 41 59 93 165 192 199 241 352 56 64 49 42 330 282 298 304 310 322 350 322 325 328 313 348 31 312 289 290 145 151 120 112 110 97 83 80 103 135 143 139 145 151 150
94 77 72 81 89 107 109 96 82 71 77 82 77 73 73 80 96 114 121 116 107 89 76 90 110 105 96 90 88 90 75 63 70 66 59 50 39 34 28 26 28 29 34 39 42 45 51 61 97 181 181 116 33 49 65 39 21 3 338 296 301 345 352 13 339 325 311 312 333 338 322 297 296 108 181 211 130 133 104 87 95 104 119 134 137 141 146 145
101 80 72 83 93 108 107 91 75 71 88 89 78 73 72 75 84 98 108 107 98 82 69 72 110 127 119 109 105 95 71 60 58 50 48 46 39 34 29 28 29 30 30 29 37 39 41 43 44 48 166 76 50 61 57 23 15 36 307 293 343 9 339 28 347 321 308 310 322 326 327 300 292 203 203 244 164 182 183 134 132 129 132 131 134 142 145 141
115 101 79 79 89 101 99 87 73 79 104 95 77 70 70 77 86 93 98 100 95 84 75 74 83 85 65 199 193 168 71 53 39 29 35 38 34 32 29 28 28 29 28 25 27 22 32 37 40 56 90 77 57 63 42 11 9 69 299 322 22 357 296 29 358 327 326 311 313 322 316 307 317 239 213 284 248 210 166 154 172 160 147 136 136 140 136 133
116 110 79 75 87 99 94 87 84 100 112 98 78 69 65 74 93 100 98 96 91 82 73 74 79 72 54 50 164 197 192 55 23 18 30 30 27 29 25 24 24 27 25 23 26 22 30 34 42 55 63 63 38 55 47 16 15 152 69 8 9 346 326 16 1 340 342 323 312 316 313 324 342 327 283 293 277 318 16 283 163 148 143 135 135 131 125 123
100 90 80 90 103 105 96 90 92 105 112 100 85 73 65 70 89 107 103 92 83 71 60 66 81 76 60 59 85 139 128 75 14 17 23 20 23 24 21 21 22 27 23 23 31 31 36 32 54 58 51 62 35 41 35 13 10 271 76 45 22 31 355 12 10 359 353 331 318 318 316 321 321 340 46 21 342 343 347 90 131 139 138 136 132 124 120 116
95 94 98 116 120 114 101 96 99 106 109 104 95 78 74 75 81 96 100 89 73 59 59 67 84 94 83 73 81 93 82 59 24 19 18 18 22 21 18 19 22 27 24 29 35 37 44 46 72 81 75 79 62 54 33 44 64 344 75 63 44 94 21 24 25 12 6 354 337 318 309 316 316 309 64 43 24 21 69 127 142 146 141 136 129 120 118 111
122 122 129 129 125 119 110 107 105 104 104 103 98 86 88 86 84 88 89 87 76 69 71 75 83 100 110 96 76 69 56 32 21 22 22 21 20 18 15 16 22 25 25 32 37 43 55 53 62 72 88 75 81 90 31 68 100 39 41 22 36 106 32 28 31 16 15 17 5 328 316 342 333 18 68 40 42 77 109 137 143 140 133 127 120 113 109 101
140 132 137 133 130 125 118 113 107 102 98 95 98 100 99 91 87 87 85 84 77 71 65 64 66 68 94 130 77 59 34 12 16 17 19 17 13 13 10 15 21 21 26 31 35 44 50 50 45 55 104 86 90 68 6 346 51 40 4 351 34 71 18 25 28 12 8 23 15 340 328 5 62 75 66 55 75 103 118 127 125 123 118 109 105 96 93 89
136 134 135 133 133 129 122 115 106 98 92 91 103 109 101 88 87 88 84 79 70 66 59 59 59 59 89 109 85 66 20 16 18 10 12 8 6 9 6 14 18 20 26 25 29 40 45 48 42 63 94 75 76 43 19 352 15 29 351 339 33 360 30 31 23 10 1 22 19 346 330 17 91 46 52 86 101 115 116 114 113 112 106 99 97 90 87 83
131 131 133 134 132 129 125 116 102 94 92 98 111 112 98 87 93 94 84 76 70 67 62 68 76 74 82 80 73 59 17 23 19 13 13 9 12 10 7 14 18 20 24 22 27 39 44 48 40 53 71 36 54 51 46 22 359 24 356 276 25 338 193 32 14 6 356 9 12 348 313 63 78 24 58 120 118 122 117 114 112 107 103 98 95 87 82 77
128 130 131 131 128 129 125 112 96 92 99 111 119 116 104 98 100 93 77 75 75 72 66 66 83 94 71 60 57 46 22 21 15 16 12 13 18 12 12 14 15 18 21 22 32 44 48 49 42 51 47 2 21 44 45 21 356 129 5 14 15 341 322 52 17 2 351 346 358 342 280 105 63 38 99 136 124 124 121 117 113 107 104 98 92 86 79 74
128 129 128 126 125 126 119 106 94 95 106 118 122 117 108 99 87 71 66 75 81 85 73 60 65 84 83 61 49 45 32 14 2 6 6 14 17 12 14 12 8 12 17 24 38 48 52 51 44 52 49 32 32 350 11 20 7 89 5 7 346 340 28 42 11 355 349 350 354 342 304 360 66 69 116 138 131 132 126 119 116 108 105 97 92 86 78 71
128 127 124 123 120 119 114 107 101 102 112 119 119 116 109 89 75 68 72 78 84 88 66 58 62 68 78 74 52 48 42 24 18 352 7 19 18 16 15 10 5 4 14 28 36 42 49 48 42 49 46 35 32 257 331 52 28 16 320 299 352 335 338 3 3 351 351 356 350 341 312 338 79 83 128 149 145 142 131 122 120 109 105 99 92 85 77 70
127 124 121 117 114 112 113 113 108 109 114 118 120 120 112 90 74 71 78 78 82 82 67 68 73 71 74 75 52 43 43 40 33 16 13 19 22 23 18 10 6 0 21 34 34 38 48 51 47 48 37 27 27 298 234 133 72 38 348 343 355 335 328 343 33 36 4 341 332 338 319 325 81 69 138 166 160 147 134 125 121 111 107 99 91 85 76 71
124 121 119 115 111 110 110 109 107 108 110 116 123 122 118 99 81 85 89 78 76 81 78 74 71 74 72 61 42 35 35 35 28 17 12 17 26 25 19 14 15 8 33 42 40 42 50 54 54 50 35 25 18 324 259 148 47 52 19 353 340 338 335 337 64 97 39 331 321 333 315 317 64 50 46 174 168 148 136 127 122 115 108 100 92 82 73 68
122 120 120 118 117 116 110 106 106 108 110 111 109 105 116 116 104 111 93 66 79 80 71 73 72 72 64 41 24 22 28 30 25 23 19 16 23 22 18 20 28 29 49 48 39 40 53 53 53 49 37 33 6 333 357 16 359 4 3 351 333 332 329 332 356 66 34 333 318 310 303 328 53 43 32 169 169 150 140 132 128 122 111 103 91 75 66 56
120 120 118 117 121 119 110 111 113 109 103 96 89 83 82 82 95 130 123 67 92 83 53 47 49 84 55 29 16 9 25 28 23 27 27 19 22 21 18 26 38 46 82 61 31 32 46 59 60 60 36 31 16 17 41 19 343 336 341 341 331 325 319 328 331 348 2 325 305 318 315 339 45 45 42 149 165 151 144 138 132 125 112 101 81 62 50 39
113 110 110 112 114 112 113 114 111 107 101 94 88 84 82 82 82 82 80 77 72 71 39 32 38 91 53 18 17 17 36 31 23 27 27 23 33 29 22 32 43 44 59 63 28 28 30 63 55 40 26 19 22 34 49 21 322 316 318 310 313 317 321 328 322 339 7 325 311 331 325 331 27 47 57 131 157 150 144 139 133 123 110 92 66 45 28 19
105 104 107 110 113 116 117 114 110 108 98 80 73 91 99 86 75 67 67 70 70 70 70 54 54 77 62 21 25 31 46 33 27 27 24 22 30 24 20 30 38 39 44 18 17 26 18 51 49 28 12 7 20 35 38 339 296 298 303 304 310 312 324 328 323 347 28 333 319 327 323 329 49 51 75 128 151 149 145 139 130 120 104 77 47 26 11 360
105 105 106 110 119 123 118 111 108 97 59 49 91 107 107 81 79 84 73 72 72 69 66 60 60 63 52 34 31 33 47 39 27 27 25 24 30 25 21 28 36 34 25 320 284 18 29 56 44 11 357 353 16 50 307 306 296 302 319 326 324 328 329 318 307 334 5 335 318 326 327 341 89 65 97 130 146 145 148 142 127 114 95 54 21 8 358 349
113 109 108 112 123 126 113 94 85 70 71 86 98 95 88 83 89 98 92 85 75 65 59 53 51 50 44 42 35 32 38 35 20 20 21 24 33 38 31 35 52 38 360 336 242 31 48 54 25 358 346 199 127 222 305 316 318 332 343 337 336 343 335 315 279 326 337 320 313 334 330 348 102 95 105 119 128 124 129 132 120 99 62 20 2 355 346 343
122 118 114 114 120 118 102 91 88 93 96 90 87 82 80 85 90 89 90 95 82 60 51 45 41 39 35 34 32 35 42 39 12 10 15 20 31 37 38 39 52 52 14 8 33 51 50 33 10 358 273 240 212 340 337 331 336 356 5 354 342 344 337 324 322 326 317 289 302 319 297 247 115 118 108 108 114 106 110 113 100 66 30 1 347 341 335 335
128 125 120 116 113 107 99 100 102 106 105 84 64 74 80 83 89 96 87 93 97 56 42 38 33 32 28 22 20 42 51 47 23 8 11 17 25 28 36 26 1 45 31 5 51 75 76 16 341 268 257 313 340 6 5 353 349 11 32 9 340 333 328 314 314 319 310 269 308 318 302 272 141 154 124 114 116 108 110 106 78 35 5 346 338 335 330 328
127 126 124 121 114 109 102 101 102 93 76 43 77 86 100 88 78 101 92 99 109 33 22 26 25 25 20 15 18 70 65 46 28 12 10 18 26 26 35 21 3 26 21 329 77 77 69 24 332 289 341 14 8 11 15 354 338 9 58 17 332 320 316 312 319 325 320 347 53 337 329 356 181 164 135 130 124 111 108 92 45 6 350 344 341 337 333 328
129 128 125 123 119 115 107 94 80 61 30 18 208 190 135 94 56 84 117 107 69 2 1 8 15 17 13 10 11 115 98 40 24 15 13 19 29 31 25 21 27 20 360 334 119 75 48 27 4 8 10 20 16 14 24 357 334 358 25 349 320 311 310 317 326 327 329 335 351 2 348 336 328 73 125 132 122 112 101 60 8 351 345 340 338 335 332 328
134 136 133 129 130 127 118 110 43 27 5 17 226 209 203 265 3 69 223 64 44 358 359 6 10 14 17 18 24 81 126 352 8 21 19 20 29 43 42 8 38 33 335 262 89 58 8 4 28 20 11 23 14 2 11 359 333 351 352 333 316 310 312 323 321 304 320 321 314 65 16 325 327 37 114 128 115 112 88 21 353 349 343 338 337 333 330 329
146 159 171 173 196 216 238 264 303 341 328 315 244 201 216 254 262 293 195 81 18 348 4 12 17 18 27 39 44 66 60 359 7 19 23 27 27 45 52 32 348 358 347 322 34 42 358 12 22 6 14 27 4 342 345 347 334 341 334 317 304 303 307 313 305 288 309 320 332 12 6 325 326 39 113 126 103 89 26 1 349 345 342 339 336 331 330 330
189 222 240 244 257 264 263 266 275 288 310 310 186 179 196 177 166 184 104 111 343 354 2 2 5 4 12 46 46 49 47 31 26 9 27 37 35 51 74 48 37 282 15 37 45 45 2 17 10 349 19 18 339 324 330 353 347 321 309 300 295 293 298 300 306 312 307 321 345 352 354 331 325 26 107 110 72 44 354 351 347 341 337 335 336 334 332 329
240 251 258 257 258 262 257 258 265 264 280 208 167 160 144 114 129 115 74 107 334 344 333 1 1 351 4 39 43 30 34 33 15 8 31 38 39 49 77 50 32 343 69 56 59 61 55 206 356 14 45 3 309 303 327 7 313 301 304 323 316 292 316 301 217 325 323 332 351 351 346 328 320 23 73 67 74 31 342 349 345 339 335 333 335 334 330 327
264 261 263 263 256 256 250 246 245 231 213 156 152 147 136 93 69 111 86 343 352 347 344 22 17 2 20 51 31 11 22 28 9 10 23 24 30 34 36 23 12 359 79 39 47 64 119 158 64 113 73 347 290 269 233 201 290 311 337 354 348 342 344 317 248 5 333 331 347 350 342 324 318 351 90 108 131 258 339 343 334 334 335 332 331 331 329 328
285 272 264 262 251 247 237 227 214 197 183 153 145 145 155 78 28 92 43 291 315 11 25 22 5 19 25 69 32 0 332 17 16 21 22 15 28 32 35 26 347 335 32 16 1 9 130 132 37 188 142 356 326 316 38 192 335 358 5 2 359 358 351 341 343 343 326 325 337 340 329 316 337 13 139 147 184 242 303 305 317 333 335 331 328 330 330 330
318 283 247 235 212 205 196 192 183 177 175 160 149 119 75 98 81 94 297 304 5 23 26 334 350 3 314 320 28 354 308 12 8 18 18 6 51 60 61 42 9 350 11 8 345 346 71 121 56 109 140 7 5 9 9 351 4 17 14 2 0 355 346 337 334 330 322 319 329 341 326 305 335 19 157 162 143 220 255 270 304 325 331 330 328 329 330 330
46 51 65 104 136 137 138 148 160 167 169 164 157 87 62 83 103 176 264 319 11 7 21 338 330 2 21 48 5 321 15 85 6 12 6 1 39 47 50 34 19 7 308 4 14 356 359 51 40 36 349 4 20 33 3 328 359 37 17 353 355 3 340 315 318 323 317 310 322 8 30 323 332 351 162 168 211 233 240 275 315 321 328 331 329 331 331 332
46 46 60 91 108 119 124 135 148 162 172 163 117 60 78 121 204 189 202 273 343 314 43 27 324 14 70 56 17 299 355 60 60 39 27 33 45 25 14 10 9 359 303 359 27 334 320 256 64 57 81 17 21 31 283 296 318 37 352 346 352 342 302 277 272 265 280 299 319 9 5 333 344 133 158 190 255 293 308 324 329 329 332 333 332 333 333 334
44 38 49 86 106 117 124 139 148 158 177 168 78 59 90 157 212 169 133 89 54 13 124 156 356 33 56 342 33 62 347 3 81 69 57 63 72 42 15 345 0 357 350 18 19 336 325 300 44 64 116 53 31 51 8 350 349 349 350 349 334 316 298 306 288 262 282 312 329 339 327 330 345 136 160 240 304 332 337 334 334 334 335 335 334 334 335 336
45 34 42 72 108 127 131 143 152 158 172 144 76 81 166 324 42 100 101 89 104 119 136 146 9 14 5 304 352 353 332 319 345 353 89 112 84 69 39 344 7 351 345 350 164 66 316 295 351 58 134 66 63 96 84 53 17 354 356 341 313 227 165 354 322 317 329 326 324 333 327 327 336 339 342 330 331 340 342 337 336 335 336 336 335 335 336 335
42 32 41 54 95 144 150 143 150 159 136 87 83 106 155 87 81 139 140 110 126 161 58 93 38 340 266 265 356 330 324 341 2 6 72 83 61 105 6 350 14 351 343 311 255 111 275 284 334 116 259 10 94 132 98 71 58 57 41 357 344 308 335 350 336 334 339 327 317 330 328 325 334 330 332 341 342 341 340 339 336 335 336 336 335 336 336 335
358 26 44 48 87 138 153 143 151 156 111 77 105 135 104 106 115 153 156 114 108 148 76 86 15 8 191 251 358 303 320 357 360 358 49 14 34 134 149 339 355 360 356 315 318 115 222 289 345 147 243 301 152 205 301 54 79 94 93 39 39 343 307 317 299 324 336 323 315 324 324 321 333 329 336 349 349 343 340 339 335 334 335 335 335 336 336 335
336 60 46 49 93 115 136 134 106 93 80 69 120 125 99 128 132 135 137 111 100 74 105 165 184 135 147 233 291 302 2 21 352 357 36 5 41 122 113 172 263 354 1 308 33 297 220 257 293 270 254 273 136 64 347 48 60 15 26 24 21 11 229 231 241 158 340 321 317 320 312 307 329 346 359 357 355 347 341 337 333 333 333 334 336 335 333 333
105 88 31 58 116 121 126 97 62 57 76 86 98 98 104 130 127 115 105 103 88 66 110 137 118 103 133 158 188 213 313 58 25 6 39 43 43 61 112 159 207 274 170 206 177 271 276 226 280 308 314 318 54 73 48 104 92 20 15 30 15 14 357 327 326 108 72 297 288 293 292 297 325 1 15 5 359 347 340 336 333 332 333 334 335 335 333 333
114 92 24 70 137 155 125 71 42 39 84 88 89 103 117 122 120 119 111 102 86 77 106 106 64 90 148 159 121 176 191 112 106 72 149 145 29 30 107 137 208 195 196 308 89 100 315 249 266 289 291 313 58 80 102 113 117 100 73 93 119 43 35 352 321 321 314 279 262 272 281 287 339 8 357 1 356 342 338 336 332 331 333 334 334 334 334 333
105 98 59 100 130 131 109 78 38 34 70 90 90 94 102 104 110 133 131 107 139 153 111 99 93 99 139 199 169 180 191 188 201 149 187 201 89 78 142 52 48 179 195 184 103 150 191 209 274 280 269 181 106 101 118 135 146 120 76 72 79 80 55 301 290 320 310 281 293 302 286 279 341 347 341 344 343 337 336 336 333 332 334 334 335 334 334 333
97 80 57 87 164 167 105 109 131 81 98 123 98 83 87 80 75 113 155 168 168 169 119 96 133 123 104 133 154 164 175 191 218 199 116 199 156 117 215 116 70 114 193 117 107 201 204 272 310 315 329 32 114 68 170 202 263 337 79 83 84 98 104 233 222 251 279 289 315 314 292 290 320 334 336 337 336 333 332 334 335 335 334 334 335 334 333 333
102 75 53 53 159 202 138 133 142 133 141 134 102 87 86 75 62 72 110 123 113 117 113 108 132 126 114 133 137 123 108 322 255 148 84 206 185 149 237 234 237 353 115 116 103 250 262 329 345 4 1 343 321 314 306 305 313 321 131 127 117 116 111 223 251 269 300 313 315 294 279 299 313 324 335 338 336 333 331 333 336 336 335 334 333 332 332 333
142 101 50 47 60 87 99 118 128 125 144 143 105 99 113 88 87 96 98 115 113 101 88 96 131 134 127 174 167 152 168 19 39 113 166 205 170 112 242 239 247 257 135 79 7 358 166 278 267 217 268 280 284 284 292 306 305 293 289 216 140 144 142 208 272 292 311 313 298 262 278 304 313 322 334 338 336 332 331 334 335 334 333 332 330 329 330 332
150 137 70 62 65 75 84 99 112 115 137 151 120 143 138 115 141 142 117 166 136 127 93 83 135 174 175 178 172 168 168 44 42 127 162 217 200 100 234 235 251 242 168 22 351 30 171 258 231 210 234 251 270 278 286 295 288 283 291 273 168 168 170 179 243 277 301 312 299 293 306 308 308 319 330 333 333 332 331 332 332 330 329 328 326 325 328 332
129 123 110 119 108 77 77 97 111 111 107 101 105 137 138 140 170 167 152 137 133 158 167 117 175 208 176 185 175 151 143 127 236 192 156 227 240 136 154 189 254 229 178 335 360 48 266 266 146 210 256 261 267 272 276 280 275 271 273 255 218 191 184 197 230 253 271 280 283 297 307 305 302 314 326 329 330 330 326 324 326 327 328 326 324 326 330 333
119 121 105 105 106 101 110 125 121 111 91 73 103 154 168 161 171 176 160 141 121 172 203 206 199 161 156 193 168 145 173 191 227 226 183 179 198 181 156 160 199 202 202 230 41 60 238 236 121 250 280 276 269 266 264 263 261 259 258 252 230 210 216 232 244 257 261 255 266 287 297 296 299 314 321 323 325 324 321 323 325 328 330 328 326 328 332 333
148 143 122 110 97 88 103 124 124 108 80 59 104 165 176 165 171 176 182 180 144 159 202 208 158 131 132 177 179 214 226 200 249 241 180 166 191 204 197 191 158 158 187 188 96 62 257 323 85 138 285 284 265 247 239 241 256 267 265 247 221 224 242 246 250 261 263 260 272 289 294 292 305 321 318 319 322 323 325 328 329 329 331 329 327 330 332 332
177 166 146 127 103 61 88 116 107 96 119 122 130 161 179 190 176 154 142 209 178 155 177 162 141 131 92 178 211 246 249 205 254 221 184 188 212 183 178 176 161 155 140 157 168 211 230 295 86 97 302 286 205 220 262 249 246 267 263 239 218 222 240 245 250 259 264 275 287 293 294 298 320 324 319 319 324 326 327 328 328 327 326 325 327 331 332 331
163 154 153 139 105 49 110 108 77 110 146 145 138 155 173 181 170 155 125 222 186 155 150 149 149 152 146 208 222 242 232 214 237 200 188 199 209 185 172 167 172 180 155 140 176 314 166 273 283 28 298 281 272 312 299 264 165 265 251 217 209 214 244 266 273 271 264 269 282 286 285 297 314 320 319 320 326 328 325 322 323 322 317 320 326 329 330 330
Height
1548 1548 1548 1548 1548 1549 1550 1550 1550 1549 1548 1549 1549 1549 1548 1548 1548 1549 1549 1549 1549 1549 1549 1549 1549 1549 1549 1548 1548 1548 1548 1548 1547 1545 1544 1547 1549 1549 1548 1546 1544 1543 1542 1542 1541 1541 1541 1541 1541 1541 1542 1542 1542 1542 1542 1543 1543 1542 1542 1543 1542 1541 1542 1542 1541 1542 1542 1540 1540 1541 1542 1542 1541 1542 1542 1542 1543 1543 1544 1544 1544 1544 1544 1544 1545 1546 1546 1548
1548 1548 1548 1548 1549 1550 1550 1550 1550 1549 1550 1551 1551 1550 1549 1549 1549 1549 1549 1549 1549 1550 1550 1549 1549 1549 1549 1549 1549 1549 1549 1549 1547 1545 1547 1550 1551 1549 1548 1547 1545 1544 1543 1543 1542 1542 1542 1541 1541 1541 1542 1542 1543 1543 1543 1544 1544 1543 1544 1544 1542 1542 1543 1544 1544 1544 1544 1542 1541 1542 1543 1543 1542 1542 1543 1542 1543 1544 1544 1545 1546 1545 1545 1546 1547 1547 1547 1549
1549 1548 1548 1549 1550 1550 1550 1550 1550 1551 1552 1552 1552 1551 1550 1550 1550 1550 1550 1550 1550 1550 1550 1549 1549 1550 1549 1549 1549 1549 1549 1549 1547 1547 1550 1552 1551 1550 1549 1547 1546 1545 1544 1544 1543 1543 1542 1542 1542 1542 1542 1543 1544 1544 1544 1545 1545 1545 1545 1543 1542 1544 1545 1546 1547 1546 1546 1545 1544 1544 1543 1544 1543 1543 1543 1542 1542 1543 1542 1544 1546 1546 1546 1547 1548 1548 1548 1550
1549 1549 1549 1549 1550 1551 1550 1550 1551 1552 1553 1553 1552 1552 1551 1551 1551 1550 1551 1551 1551 1551 1551 1550 1550 1550 1550 1549 1548 1549 1548 1548 1550 1552 1553 1552 1551 1550 1549 1548 1547 1546 1545 1544 1544 1543 1543 1543 1543 1543 1543 1544 1545 1545 1546 1546 1546 1546 1546 1544 1545 1547 1546 1547 1548 1547 1547 1546 1546 1545 1544 1544 1543 1543 1543 1543 1541 1539 1541 1543 1543 1544 1545 1547 1548 1549 1550 1551
1550 1550 1550 1550 1551 1552 1551 1552 1553 1553 1553 1553 1553 1552 1552 1551 1551 1551 1552 1552 1552 1552 1551 1551 1551 1551 1550 1548 1547 1548 1548 1550 1554 1555 1554 1553 1552 1551 1550 1549 1548 1547 1546 1545 1544 1544 1544 1544 1543 1544 1543 1544 1545 1545 1547 1548 1547 1546 1547 1547 1548 1548 1547 1547 1548 1547 1547 1547 1546 1546 1544 1544 1544 1544 1543 1543 1541 1539 1542 1543 1544 1545 1546 1547 1549 1550 1551 1552
1550 1550 1550 1551 1552 1553 1553 1553 1553 1554 1554 1554 1553 1553 1552 1552 1552 1552 1552 1553 1552 1552 1552 1552 1552 1551 1550 1548 1547 1548 1549 1554 1558 1556 1554 1554 1553 1552 1551 1550 1549 1548 1547 1546 1545 1544 1544 1544 1543 1544 1544 1545 1546 1546 1547 1548 1546 1545 1546 1548 1549 1549 1548 1549 1549 1548 1548 1547 1547 1546 1545 1544 1544 1543 1543 1544 1544 1543 1544 1545 1545 1546 1547 1549 1550 1551 1552 1552
1550 1550 1551 1553 1553 1553 1554 1554 1554 1554 1554 1554 1554 1554 1553 1553 1553 1553 1553 1553 1553 1553 1552 1552 1552 1552 1551 1550 1550 1549 1550 1556 1559 1556 1555 1554 1553 1553 1552 1551 1550 1549 1548 1547 1545 1544 1544 1544 1544 1544 1544 1545 1546 1547 1547 1547 1546 1545 1546 1548 1549 1549 1550 1549 1549 1548 1548 1547 1547 1546 1545 1544 1543 1543 1544 1546 1547 1547 1546 1546 1546 1546 1548 1550 1551 1552 1552 1552
1551 1551 1552 1553 1553 1554 1554 1555 1555 1555 1555 1555 1555 1554 1554 1554 1554 1554 1554 1554 1554 1553 1553 1552 1552 1552 1551 1552 1551 1550 1553 1558 1558 1557 1556 1555 1555 1554 1553 1552 1551 1550 1548 1547 1546 1545 1545 1544 1544 1544 1545 1546 1546 1547 1547 1546 1546 1546 1547 1549 1549 1550 1550 1550 1549 1549 1548 1547 1546 1546 1544 1544 1544 1544 1546 1549 1550 1549 1548 1547 1547 1548 1550 1552 1552 1553 1554 1554
1552 1552 1553 1554 1554 1554 1555 1555 1555 1555 1555 1555 1555 1555 1555 1555 1555 1555 1555 1555 1555 1554 1554 1552 1552 1552 1551 1552 1550 1551 1557 1560 1559 1558 1557 1556 1556 1554 1554 1553 1551 1550 1549 1548 1547 1546 1546 1546 1545 1545 1545 1547 1548 1548 1548 1546 1546 1548 1549 1549 1550 1550 1550 1550 1550 1549 1548 1548 1547 1546 1544 1544 1545 1545 1548 1553 1552 1551 1550 1550 1551 1552 1553 1554 1555 1556 1556 1557
1553 1554 1554 1554 1554 1555 1555 1556 1556 1556 1556 1556 1556 1556 1556 1556 1556 1556 1556 1556 1555 1555 1554 1553 1553 1552 1552 1552 1549 1554 1562 1561 1559 1559 1558 1557 1556 1555 1555 1553 1552 1551 1550 1549 1549 1548 1547 1547 1547 1547 1547 1548 1549 1549 1549 1548 1548 1551 1551 1550 1551 1550 1550 1550 1550 1550 1549 1548 1548 1546 1544 1545 1546 1545 1549 1554 1553 1553 1552 1552 1554 1554 1555 1557 1557 1558 1559 1559
1554 1554 1554 1554 1554 1555 1556 1556 1556 1557 1557 1557 1557 1557 1557 1557 1557 1557 1557 1556 1556 1556 1555 1554 1554 1554 1554 1551 1551 1559 1564 1561 1561 1560 1559 1558 1557 1556 1555 1553 1553 1552 1551 1551 1550 1549 1549 1549 1549 1548 1548 1549 1550 1550 1551 1551 1551 1552 1551 1551 1551 1550 1550 1550 1550 1550 1549 1548 1548 1547 1545 1545 1546 1546 1551 1555 1555 1555 1554 1554 1556 1556 1557 1558 1559 1560 1560 1560
1554 1554 1554 1554 1555 1556 1556 1557 1557 1557 1558 1558 1558 1558 1558 1558 1558 1558 1557 1557 1557 1556 1556 1555 1554 1555 1553 1551 1556 1563 1564 1562 1562 1560 1559 1558 1557 1556 1555 1554 1554 1553 1552 1552 1551 1551 1550 1550 1550 1549 1550 1551 1551 1551 1551 1552 1552 1552 1552 1550 1550 1548 1548 1550 1552 1551 1550 1549 1549 1547 1544 1543 1548 1551 1554 1556 1556 1556 1556 1556 1557 1558 1559 1560 1560 1561 1562 1562
1554 1554 1554 1555 1555 1556 1557 1557 1558 1558 1558 1558 1559 1559 1559 1559 1558 1558 1558 1558 1558 1557 1557 1556 1555 1555 1552 1555 1564 1565 1564 1563 1562 1561 1560 1558 1557 1556 1555 1555 1554 1554 1553 1553 1552 1552 1551 1552 1551 1551 1552 1552 1552 1552 1552 1552 1552 1552 1553 1551 1550 1549 1547 1549 1553 1553 1551 1550 1550 1549 1543 1540 1550 1555 1555 1557 1557 1557 1557 1558 1559 1559 1561 1561 1562 1563 1563 1564
1554 1554 1555 1555 1556 1557 1557 1558 1558 1558 1559 1559 1559 1559 1559 1560 1559 1559 1558 1558 1558 1558 1558 1557 1557 1555 1553 1560 1567 1565 1565 1564 1562 1561 1560 1559 1559 1557 1556 1556 1555 1555 1554 1553 1553 1552 1552 1552 1552 1551 1553 1553 1553 1553 1552 1552 1551 1552 1553 1552 1552 1553 1549 1548 1553 1554 1552 1552 1551 1551 1544 1540 1550 1556 1556 1558 1558 1558 1559 1560 1561 1562 1563 1563 1564 1565 1565 1565
1555 1555 1555 1556 1557 1557 1558 1558 1559 1559 1559 1559 1560 1560 1560 1560 1560 1560 1559 1559 1559 1559 1559 1557 1558 1557 1557 1562 1567 1566 1565 1563 1561 1561 1560 1560 1559 1558 1557 1556 1555 1555 1555 1554 1553 1553 1553 1553 1553 1553 1555 1554 1552 1551 1550 1550 1552 1554 1555 1554 1554 1555 1551 1548 1553 1554 1553 1553 1551 1551 1546 1541 1550 1557 1556 1558 1558 1559 1560 1561 1563 1563 1564 1565 1565 1566 1566 1566
1555 1555 1556 1557 1558 1558 1558 1559 1559 1560 1560 1560 1561 1561 1561 1561 1561 1561 1560 1560 1559 1559 1559 1559 1558 1557 1559 1565 1567 1566 1564 1562 1562 1562 1561 1560 1559 1558 1558 1557 1556 1555 1555 1555 1554 1554 1554 1553 1554 1556 1557 1555 1553 1551 1547 1547 1551 1554 1558 1559 1558 1557 1554 1549 1551 1555 1555 1554 1550 1551 1549 1543 1549 1557 1557 1558 1559 1560 1561 1562 1564 1565 1566 1566 1567 1567 1567 1567
1555 1556 1557 1558 1558 1559 1559 1559 1560 1560 1561 1561 1561 1561 1561 1561 1561 1561 1561 1560 1561 1561 1560 1560 1559 1558 1561 1567 1567 1566 1565 1565 1565 1564 1561 1560 1559 1559 1559 1558 1556 1556 1556 1556 1555 1555 1554 1554 1556 1558 1559 1559 1559 1552 1547 1553 1557 1556 1559 1561 1560 1560 1558 1552 1551 1553 1555 1554 1550 1550 1548 1545 1551 1557 1557 1558 1559 1561 1562 1563 1565 1566 1567 1567 1567 1568 1567 1567
1556 1557 1558 1558 1559 1559 1560 1560 1561 1561 1561 1562 1562 1562 1562 1562 1562 1561 1561 1561 1561 1560 1560 1561 1559 1559 1565 1569 1569 1569 1568 1568 1566 1563 1562 1561 1560 1560 1559 1558 1557 1556 1556 1556 1556 1555 1554 1557 1558 1559 1560 1562 1563 1557 1557 1568 1570 1566 1565 1565 1564 1562 1560 1557 1553 1553 1554 1554 1551 1548 1546 1547 1552 1557 1557 1559 1560 1561 1562 1564 1565 1566 1567 1568 1568 1568 1568 1567
1557 1558 1558 1559 1559 1560 1560 1561 1562 1562 1563 1563 1563 1564 1563 1563 1562 1562 1562 1562 1562 1563 1566 1566 1564 1566 1572 1573 1572 1571 1569 1569 1566 1563 1562 1561 1560 1561 1560 1558 1558 1556 1555 1557 1559 1559 1558 1559 1559 1562 1565 1568 1571 1569 1571 1577 1576 1574 1572 1571 1569 1563 1559 1558 1556 1554 1555 1554 1550 1548 1547 1547 1553 1557 1558 1560 1561 1562 1563 1565 1566 1567 1568 1569 1569 1569 1568 1567
1558 1559 1559 1559 1560 1561 1562 1562 1563 1564 1564 1564 1564 1564 1564 1564 1563 1565 1565 1563 1566 1570 1573 1573 1571 1573 1575 1574 1573 1571 1570 1569 1567 1565 1563 1562 1561 1561 1559 1559 1557 1555 1558 1562 1564 1564 1561 1562 1567 1572 1574 1576 1578 1578 1578 1578 1577 1576 1572 1570 1568 1563 1560 1558 1555 1554 1556 1555 1549 1547 1547 1548 1555 1558 1559 1561 1561 1563 1564 1565 1567 1568 1569 1569 1569 1569 1568 1567
1560 1560 1561 1561 1562 1563 1563 1564 1564 1565 1564 1564 1564 1564 1564 1563 1564 1568 1568 1568 1572 1574 1575 1575 1575 1575 1575 1575 1573 1571 1570 1569 1568 1566 1565 1564 1562 1561 1561 1560 1558 1559 1564 1567 1566 1565 1563 1567 1575 1579 1580 1581 1580 1580 1580 1577 1575 1573 1569 1567 1564 1563 1561 1558 1556 1554 1555 1556 1549 1546 1546 1548 1555 1559 1560 1562 1562 1564 1565 1566 1568 1568 1569 1569 1569 1568 1567 1566
1561 1561 1562 1563 1564 1564 1565 1565 1565 1565 1565 1565 1564 1564 1565 1564 1565 1567 1567 1570 1575 1576 1576 1576 1575 1575 1575 1575 1574 1572 1570 1568 1568 1567 1566 1564 1562 1562 1564 1563 1563 1567 1568 1566 1564 1563 1564 1572 1580 1582 1582 1582 1581 1580 1578 1575 1572 1569 1567 1568 1565 1564 1561 1555 1555 1555 1555 1555 1548 1547 1547 1547 1555 1559 1560 1563 1563 1565 1567 1567 1569 1569 1570 1569 1568 1568 1566 1564
1562 1563 1563 1564 1565 1565 1566 1566 1566 1566 1566 1566 1566 1565 1565 1566 1566 1567 1566 1569 1575 1576 1577 1576 1575 1575 1575 1574 1574 1573 1571 1571 1572 1570 1567 1566 1564 1565 1566 1567 1568 1569 1570 1568 1565 1564 1569 1577 1582 1583 1582 1581 1579 1577 1576 1572 1568 1568 1569 1570 1569 1568 1566 1559 1554 1553 1554 1553 1549 1549 1546 1545 1554 1559 1560 1564 1565 1566 1568 1569 1570 1571 1570 1570 1568 1566 1564 1562
1563 1564 1564 1565 1565 1566 1566 1566 1567 1566 1566 1566 1566 1566 1566 1567 1567 1567 1567 1569 1574 1577 1577 1576 1576 1575 1575 1576 1575 1574 1574 1576 1577 1574 1571 1569 1567 1568 1569 1570 1569 1569 1573 1574 1570 1570 1577 1582 1583 1583 1582 1579 1576 1574 1575 1573 1568 1568 1572 1575 1573 1570 1569 1565 1558 1554 1549 1548 1551 1549 1540 1538 1549 1555 1558 1564 1566 1567 1569 1570 1571 1571 1570 1569 1567 1566 1564 1561
1564 1565 1565 1566 1566 1566 1567 1567 1567 1567 1567 1566 1566 1566 1566 1567 1567 1567 1568 1570 1574 1577 1577 1577 1577 1577 1577 1577 1576 1576 1575 1576 1579 1578 1575 1573 1571 1571 1571 1572 1570 1570 1575 1577 1572 1572 1579 1584 1583 1581 1580 1577 1574 1573 1576 1577 1570 1568 1573 1577 1575 1570 1568 1564 1559 1556 1548 1544 1550 1549 1542 1538 1540 1548 1557 1563 1566 1568 1570 1571 1570 1570 1569 1568 1566 1564 1562 1560
1565 1565 1566 1566 1566 1567 1567 1567 1567 1567 1567 1566 1566 1566 1566 1567 1567 1567 1568 1571 1576 1579 1579 1578 1578 1579 1579 1579 1577 1576 1575 1577 1582 1581 1577 1575 1573 1573 1573 1574 1574 1574 1577 1577 1574 1575 1581 1584 1582 1581 1579 1576 1574 1574 1578 1580 1572 1568 1572 1575 1573 1569 1565 1562 1560 1560 1554 1548 1548 1548 1550 1546 1536 1542 1557 1563 1567 1570 1571 1571 1570 1569 1568 1566 1565 1563 1561 1558
1565 1566 1566 1566 1567 1567 1567 1567 1567 1567 1566 1566 1566 1566 1567 1567 1567 1567 1568 1572 1579 1583 1582 1580 1581 1583 1582 1582 1579 1576 1579 1582 1583 1583 1579 1577 1576 1574 1574 1576 1576 1576 1578 1576 1573 1578 1583 1582 1581 1581 1577 1575 1576 1575 1578 1581 1575 1571 1573 1574 1571 1566 1562 1561 1562 1559 1554 1550 1547 1546 1551 1550 1539 1547 1562 1564 1567 1571 1570 1570 1569 1568 1567 1565 1564 1562 1559 1557
1565 1566 1566 1566 1566 1566 1567 1566 1566 1567 1566 1566 1566 1566 1567 1567 1567 1568 1569 1577 1586 1585 1584 1584 1584 1585 1585 1585 1582 1581 1586 1586 1584 1584 1582 1579 1577 1575 1576 1579 1579 1578 1579 1575 1574 1582 1586 1583 1584 1582 1578 1578 1579 1580 1579 1580 1577 1573 1574 1572 1569 1564 1560 1561 1560 1556 1553 1552 1548 1544 1550 1553 1545 1550 1564 1565 1566 1571 1570 1569 1568 1567 1566 1565 1563 1561 1558 1556
1565 1566 1566 1566 1566 1566 1566 1566 1566 1566 1565 1566 1566 1566 1567 1566 1567 1568 1569 1581 1589 1587 1587 1586 1585 1587 1586 1586 1585 1586 1589 1587 1586 1588 1585 1581 1579 1577 1578 1580 1581 1580 1579 1577 1579 1586 1586 1585 1586 1584 1582 1583 1583 1581 1580 1580 1579 1574 1573 1570 1565 1561 1559 1559 1557 1552 1550 1553 1550 1546 1551 1556 1550 1549 1560 1564 1567 1572 1569 1568 1568 1567 1566 1564 1562 1559 1556 1553
1565 1565 1565 1565 1565 1565 1565 1565 1565 1565 1565 1566 1565 1566 1567 1567 1569 1570 1574 1585 1589 1588 1588 1587 1588 1590 1588 1587 1588 1589 1590 1590 1590 1589 1586 1584 1581 1579 1579 1579 1580 1580 1580 1579 1581 1586 1587 1586 1587 1586 1585 1587 1585 1582 1580 1581 1579 1573 1570 1566 1561 1558 1556 1556 1557 1556 1552 1551 1550 1547 1550 1555 1553 1553 1561 1567 1571 1573 1570 1568 1568 1566 1565 1562 1560 1557 1554 1550
1565 1564 1564 1564 1564 1564 1564 1564 1564 1565 1565 1565 1566 1566 1567 1568 1569 1572 1581 1589 1590 1588 1589 1590 1593 1593 1592 1592 1592 1592 1592 1592 1592 1590 1587 1585 1583 1580 1579 1581 1583 1579 1576 1578 1579 1583 1586 1585 1585 1587 1588 1587 1584 1581 1580 1580 1578 1573 1568 1563 1559 1555 1554 1553 1552 1557 1560 1555 1548 1546 1550 1554 1552 1556 1565 1570 1572 1572 1570 1569 1567 1565 1563 1561 1558 1556 1552 1549
1564 1563 1563 1563 1563 1563 1563 1563 1564 1564 1565 1565 1566 1567 1567 1570 1573 1580 1588 1590 1589 1591 1593 1594 1595 1595 1596 1596 1596 1597 1595 1594 1594 1593 1593 1592 1591 1591 1591 1594 1594 1582 1576 1583 1583 1580 1583 1585 1586 1587 1587 1588 1583 1578 1577 1577 1576 1574 1569 1568 1570 1568 1568 1566 1559 1558 1561 1555 1548 1547 1553 1555 1552 1557 1567 1570 1570 1570 1570 1569 1566 1564 1562 1559 1557 1553 1550 1547
1563 1563 1562 1562 1562 1562 1562 1563 1564 1564 1565 1566 1566 1567 1568 1570 1580 1593 1595 1589 1590 1596 1598 1598 1598 1598 1597 1594 1596 1599 1597 1596 1597 1596 1598 1596 1595 1598 1600 1602 1602 1592 1586 1590 1591 1583 1580 1583 1586 1586 1586 1587 1585 1580 1580 1580 1578 1579 1579 1581 1586 1590 1597 1593 1577 1568 1563 1553 1548 1550 1557 1557 1551 1557 1567 1568 1568 1569 1568 1567 1566 1563 1561 1558 1555 1551 1548 1545
1563 1562 1562 1562 1562 1562 1562 1563 1564 1564 1565 1566 1566 1568 1568 1573 1587 1598 1595 1592 1596 1599 1599 1600 1599 1597 1597 1596 1599 1600 1597 1598 1599 1598 1597 1596 1595 1598 1601 1602 1603 1602 1596 1594 1598 1597 1586 1581 1584 1586 1587 1588 1588 1588 1589 1587 1585 1585 1586 1587 1588 1595 1607 1603 1587 1583 1578 1561 1550 1554 1561 1559 1554 1559 1566 1566 1567 1567 1566 1565 1565 1562 1560 1557 1553 1549 1546 1543
1563 1563 1563 1562 1562 1562 1563 1563 1564 1564 1565 1566 1567 1568 1571 1580 1592 1595 1593 1595 1599 1598 1599 1601 1598 1595 1596 1598 1602 1602 1598 1597 1600 1601 1599 1599 1601 1603 1606 1606 1606 1607 1600 1594 1601 1603 1591 1584 1586 1589 1590 1590 1590 1592 1591 1588 1587 1586 1585 1587 1589 1590 1595 1594 1588 1588 1586 1567 1551 1554 1558 1554 1555 1562 1564 1565 1566 1566 1565 1564 1562 1560 1557 1554 1550 1547 1544 1541
1564 1563 1563 1563 1563 1563 1563 1563 1564 1565 1566 1567 1567 1571 1580 1588 1592 1593 1595 1598 1598 1598 1598 1597 1596 1594 1593 1596 1599 1601 1600 1599 1599 1599 1601 1605 1607 1608 1611 1611 1610 1610 1605 1601 1606 1605 1592 1582 1584 1588 1590 1591 1592 1592 1591 1589 1587 1586 1587 1590 1591 1589 1590 1590 1583 1575 1574 1567 1555 1555 1557 1552 1555 1562 1562 1565 1565 1563 1564 1562 1559 1557 1553 1550 1548 1544 1542 1540
1564 1564 1563 1563 1563 1563 1564 1564 1565 1565 1566 1566 1568 1580 1592 1595 1595 1597 1599 1599 1599 1600 1596 1593 1597 1599 1596 1596 1597 1598 1599 1598 1597 1596 1598 1604 1606 1609 1613 1611 1611 1612 1609 1608 1609 1610 1604 1589 1584 1589 1589 1589 1593 1592 1591 1593 1591 1590 1594 1593 1589 1589 1588 1589 1587 1577 1572 1571 1562 1560 1565 1560 1558 1560 1560 1563 1564 1561 1561 1559 1556 1554 1550 1548 1545 1543 1541 1539
1564 1564 1564 1563 1563 1564 1565 1564 1565 1566 1566 1569 1579 1590 1596 1596 1598 1599 1599 1599 1599 1600 1596 1593 1599 1603 1602 1599 1598 1601 1601 1595 1595 1597 1598 1600 1604 1610 1613 1611 1611 1612 1611 1611 1607 1610 1612 1595 1583 1590 1591 1589 1592 1592 1589 1592 1593 1593 1597 1596 1594 1595 1589 1589 1599 1594 1584 1582 1572 1563 1566 1563 1559 1561 1560 1561 1563 1560 1558 1556 1554 1551 1548 1546 1543 1541 1540 1537
1565 1564 1564 1564 1564 1564 1565 1565 1566 1566 1564 1571 1585 1593 1594 1597 1599 1598 1599 1599 1599 1598 1596 1597 1601 1603 1604 1603 1601 1605 1605 1599 1598 1599 1598 1599 1603 1610 1613 1611 1612 1612 1611 1612 1609 1609 1613 1602 1587 1587 1591 1589 1588 1588 1588 1590 1593 1593 1595 1597 1599 1600 1597 1597 1604 1601 1596 1597 1585 1571 1567 1562 1557 1558 1560 1561 1562 1560 1557 1555 1552 1550 1548 1546 1542 1540 1538 1535
1564 1564 1565 1566 1565 1565 1566 1565 1565 1567 1569 1578 1588 1592 1594 1598 1599 1599 1599 1599 1598 1598 1597 1600 1601 1600 1603 1606 1605 1606 1607 1605 1604 1601 1600 1603 1605 1609 1613 1613 1612 1612 1611 1612 1611 1610 1611 1607 1594 1584 1585 1586 1585 1587 1588 1589 1594 1594 1595 1600 1602 1600 1598 1597 1599 1601 1604 1604 1597 1589 1579 1564 1556 1558 1560 1561 1560 1559 1558 1555 1552 1550 1547 1545 1543 1540 1537 1535
1564 1565 1565 1566 1566 1566 1566 1566 1569 1574 1579 1586 1590 1593 1595 1597 1598 1599 1599 1598 1599 1599 1599 1600 1600 1600 1602 1604 1605 1607 1607 1607 1606 1604 1604 1605 1604 1606 1611 1613 1612 1612 1612 1610 1611 1611 1609 1608 1601 1590 1584 1581 1583 1591 1592 1590 1595 1596 1596 1601 1604 1603 1599 1597 1599 1602 1605 1605 1604 1605 1592 1567 1556 1559 1561 1560 1560 1559 1558 1555 1552 1549 1546 1544 1542 1540 1537 1534
1564 1565 1566 1566 1566 1566 1566 1570 1578 1581 1584 1588 1590 1592 1595 1596 1597 1599 1599 1599 1599 1599 1599 1601 1600 1602 1603 1603 1604 1607 1607 1606 1606 1606 1605 1606 1606 1607 1610 1612 1612 1612 1611 1609 1610 1613 1611 1609 1607 1597 1586 1582 1586 1593 1593 1592 1595 1596 1597 1601 1603 1603 1603 1604 1603 1600 1602 1602 1599 1602 1593 1569 1555 1557 1559 1558 1559 1559 1558 1555 1551 1548 1545 1543 1541 1539 1536 1534
1564 1566 1566 1566 1566 1566 1566 1574 1584 1586 1587 1591 1592 1593 1594 1596 1597 1599 1599 1599 1599 1599 1599 1600 1601 1602 1603 1604 1605 1606 1606 1605 1605 1606 1606 1607 1608 1610 1610 1612 1611 1611 1611 1610 1611 1613 1612 1610 1607 1592 1578 1582 1591 1595 1595 1596 1595 1593 1596 1601 1602 1605 1607 1608 1607 1606 1607 1602 1596 1598 1589 1564 1550 1553 1557 1557 1558 1558 1556 1554 1551 1547 1544 1542 1539 1537 1535 1532
1565 1566 1566 1566 1566 1566 1566 1572 1581 1588 1591 1592 1592 1594 1595 1596 1598 1598 1599 1599 1598 1599 1598 1600 1602 1602 1603 1605 1605 1605 1605 1603 1604 1606 1607 1607 1609 1610 1611 1611 1611 1610 1610 1608 1610 1611 1608 1605 1601 1590 1579 1581 1586 1588 1590 1591 1590 1590 1597 1605 1606 1607 1609 1607 1609 1613 1609 1596 1593 1597 1581 1556 1548 1553 1555 1556 1557 1556 1554 1553 1550 1546 1543 1540 1537 1535 1533 1530
1565 1566 1567 1566 1566 1566 1566 1569 1575 1583 1590 1590 1591 1595 1595 1597 1599 1599 1599 1599 1599 1599 1598 1600 1602 1602 1604 1606 1605 1606 1607 1603 1603 1606 1608 1609 1609 1610 1611 1610 1610 1610 1610 1610 1610 1610 1607 1604 1602 1598 1596 1594 1589 1587 1585 1585 1587 1589 1596 1604 1607 1608 1609 1606 1606 1608 1601 1591 1592 1593 1574 1552 1547 1551 1552 1554 1554 1553 1551 1549 1547 1544 1542 1539 1536 1533 1531 1529
1564 1565 1567 1567 1566 1566 1569 1572 1573 1577 1584 1586 1589 1595 1596 1597 1600 1599 1599 1599 1599 1599 1599 1600 1602 1602 1604 1605 1603 1605 1606 1606 1605 1606 1607 1608 1608 1610 1611 1610 1610 1610 1609 1610 1610 1609 1610 1608 1604 1601 1602 1601 1596 1591 1588 1587 1590 1590 1592 1598 1605 1610 1610 1607 1603 1598 1594 1590 1586 1580 1570 1556 1549 1549 1550 1552 1553 1551 1549 1546 1543 1542 1540 1537 1535 1533 1531 1528
1564 1566 1568 1568 1568 1569 1572 1575 1575 1577 1580 1581 1586 1593 1595 1596 1599 1599 1599 1599 1598 1599 1600 1601 1602 1601 1601 1602 1602 1602 1605 1607 1606 1605 1607 1608 1609 1610 1610 1609 1610 1610 1609 1610 1609 1609 1609 1605 1604 1606 1603 1599 1596 1592 1590 1592 1592 1591 1592 1596 1602 1607 1609 1608 1603 1595 1594 1594 1579 1565 1566 1565 1555 1550 1551 1552 1553 1551 1548 1546 1544 1541 1538 1536 1534 1532 1530 1527
1564 1567 1569 1569 1569 1572 1575 1576 1577 1578 1580 1582 1587 1593 1594 1595 1597 1597 1597 1599 1599 1599 1599 1599 1601 1601 1600 1601 1599 1599 1603 1605 1604 1605 1608 1609 1609 1609 1609 1610 1610 1609 1610 1610 1609 1610 1608 1603 1607 1610 1604 1599 1598 1593 1590 1592 1592 1591 1593 1594 1597 1601 1603 1603 1601 1595 1594 1595 1580 1564 1566 1567 1557 1552 1554 1554 1554 1551 1548 1547 1544 1541 1538 1535 1533 1531 1528 1525
1564 1566 1569 1570 1571 1574 1576 1578 1578 1579 1580 1583 1588 1593 1593 1593 1594 1595 1597 1598 1598 1599 1599 1597 1598 1600 1601 1601 1599 1598 1600 1599 1598 1603 1606 1607 1609 1608 1607 1608 1608 1609 1610 1609 1609 1611 1607 1604 1609 1613 1606 1598 1594 1590 1589 1591 1592 1591 1591 1590 1591 1595 1597 1597 1596 1591 1589 1587 1578 1569 1568 1565 1559 1555 1555 1554 1553 1552 1549 1546 1542 1539 1536 1533 1531 1529 1525 1522
1563 1564 1567 1569 1572 1576 1578 1579 1579 1579 1581 1584 1585 1590 1592 1591 1591 1594 1596 1595 1595 1598 1599 1596 1598 1600 1601 1602 1600 1598 1599 1598 1597 1600 1603 1604 1605 1606 1605 1604 1606 1609 1610 1609 1611 1611 1606 1604 1611 1615 1607 1592 1586 1588 1589 1589 1589 1588 1588 1588 1590 1592 1592 1592 1590 1587 1585 1581 1575 1572 1569 1562 1558 1557 1556 1554 1552 1549 1546 1543 1540 1537 1534 1532 1530 1527 1523 1520
1562 1563 1564 1566 1573 1579 1579 1579 1580 1579 1581 1583 1584 1588 1591 1590 1590 1592 1594 1596 1595 1595 1597 1597 1597 1600 1602 1602 1601 1599 1599 1600 1599 1600 1601 1601 1601 1602 1602 1602 1604 1607 1608 1609 1611 1610 1608 1607 1610 1614 1604 1585 1581 1586 1584 1586 1593 1594 1590 1588 1588 1589 1587 1585 1583 1581 1580 1577 1573 1573 1568 1558 1554 1555 1554 1551 1550 1547 1544 1541 1538 1535 1533 1532 1529 1525 1522 1518
1562 1563 1564 1564 1572 1580 1580 1579 1581 1578 1579 1582 1584 1586 1588 1588 1589 1590 1590 1595 1596 1595 1596 1597 1597 1599 1600 1600 1600 1599 1599 1600 1600 1600 1601 1601 1601 1601 1602 1603 1604 1605 1606 1609 1610 1611 1611 1607 1606 1611 1600 1580 1576 1581 1583 1586 1585 1579 1577 1579 1579 1582 1581 1577 1576 1574 1573 1574 1573 1570 1564 1556 1554 1554 1551 1548 1546 1545 1543 1540 1538 1535 1533 1531 1529 1525 1521 1517